| time (UTC) | temp F | wind direction | speed MPH | gust MPH | rain 1hr in | rain 24hr in | rain mn in | humidity % | barometer mb |
| 20260504223531 | 73 | 199 | 2.0 | 3.0 | 0.00 | 0.00 | 0.00 | 41 | 1005.3 |
| 20260504223026 | 73 | 164 | 0.0 | 1.0 | 0.00 | 0.00 | 0.00 | 42 | 1005.3 |
| 20260504222523 | 73 | 191 | 4.0 | 5.0 | 0.00 | 0.00 | 0.00 | 40 | 1005.0 |
| 20260504222021 | 73 | 169 | 7.0 | 9.0 | 0.00 | 0.00 | 0.00 | 40 | 1005.3 |
| 20260504221518 | 73 | 167 | 2.0 | 2.0 | 0.00 | 0.00 | 0.00 | 44 | 1005.3 |
| 20260504221015 | 73 | 146 | 1.0 | 2.0 | 0.00 | 0.00 | 0.00 | 43 | 1005.3 |
| 20260504220511 | 73 | 169 | 1.0 | 2.0 | 0.00 | 0.00 | 0.00 | 44 | 1005.3 |
| 20260504220008 | 73 | 184 | 3.0 | 3.0 | 0.00 | 0.00 | 0.00 | 41 | 1005.6 |
| 20260504215505 | 73 | 167 | 3.0 | 5.0 | 0.00 | 0.00 | 0.00 | 41 | 1005.6 |
| 20260504215002 | 73 | 208 | 3.0 | 3.0 | 0.00 | 0.00 | 0.00 | 44 | 1005.3 |
| 20260504214458 | 73 | 186 | 4.0 | 6.0 | 0.00 | 0.00 | 0.00 | 42 | 1005.3 |
| 20260504213954 | 73 | 134 | 4.0 | 6.0 | 0.00 | 0.00 | 0.00 | 43 | 1005.6 |
| 20260504213450 | 73 | 229 | 5.0 | 7.0 | 0.00 | 0.00 | 0.00 | 42 | 1005.6 |
| 20260504212948 | 73 | 177 | 4.0 | 5.0 | 0.00 | 0.00 | 0.00 | 43 | 1005.3 |
| 20260504212444 | 73 | 175 | 1.0 | 1.0 | 0.00 | 0.00 | 0.00 | 44 | 1005.6 |
| 20260504211942 | 73 | 189 | 4.0 | 5.0 | 0.00 | 0.00 | 0.00 | 43 | 1005.6 |
| 20260504211438 | 73 | 209 | 2.0 | 3.0 | 0.00 | 0.00 | 0.00 | 43 | 1005.6 |
| 20260504210936 | 73 | 196 | 2.0 | 3.0 | 0.00 | 0.00 | 0.00 | 44 | 1005.6 |
| 20260504210432 | 74 | 169 | 2.0 | 2.0 | 0.00 | 0.00 | 0.00 | 44 | 1005.6 |
| 20260504205929 | 73 | 150 | 1.0 | 2.0 | 0.00 | 0.00 | 0.00 | 44 | 1005.3 |
| 20260504205427 | 73 | 192 | 1.0 | 1.0 | 0.00 | 0.00 | 0.00 | 45 | 1005.6 |
| 20260504204925 | 73 | 228 | 5.0 | 7.0 | 0.00 | 0.00 | 0.00 | 44 | 1005.6 |
| 20260504204423 | 73 | 168 | 1.0 | 1.0 | 0.00 | 0.00 | 0.00 | 47 | 1005.6 |
| 20260504203922 | 73 | 210 | 3.0 | 3.0 | 0.00 | 0.00 | 0.00 | 45 | 1005.6 |
| 20260504203419 | 73 | 114 | 3.0 | 5.0 | 0.00 | 0.00 | 0.00 | 44 | 1005.6 |
| 20260504202915 | 73 | 196 | 2.0 | 2.0 | 0.00 | 0.00 | 0.00 | 46 | 1006.0 |
| 20260504202412 | 73 | 229 | 7.0 | 9.0 | 0.00 | 0.00 | 0.00 | 44 | 1006.0 |
| 20260504201908 | 73 | 194 | 3.0 | 3.0 | 0.00 | 0.00 | 0.00 | 49 | 1006.0 |
| 20260504201406 | 73 | 160 | 3.0 | 3.0 | 0.00 | 0.00 | 0.00 | 44 | 1006.0 |
| 20260504200903 | 74 | 222 | 3.0 | 6.0 | 0.00 | 0.00 | 0.00 | 45 | 1006.0 |
| 20260504200400 | 74 | 161 | 2.0 | 2.0 | 0.00 | 0.00 | 0.00 | 45 | 1006.3 |
| 20260504195857 | 74 | 214 | 2.0 | 3.0 | 0.00 | 0.00 | 0.00 | 45 | 1006.3 |
| 20260504195352 | 74 | 126 | 3.0 | 3.0 | 0.00 | 0.00 | 0.00 | 47 | 1006.0 |
| 20260504194848 | 74 | 114 | 2.0 | 2.0 | 0.00 | 0.00 | 0.00 | 45 | 1006.3 |
| 20260504194345 | 73 | 208 | 2.0 | 2.0 | 0.00 | 0.00 | 0.00 | 46 | 1006.3 |
| 20260504193841 | 73 | 163 | 2.0 | 2.0 | 0.00 | 0.00 | 0.00 | 47 | 1006.3 |
| 20260504193338 | 74 | 225 | 3.0 | 3.0 | 0.00 | 0.00 | 0.00 | 46 | 1006.7 |
| 20260504192837 | 74 | 196 | 2.0 | 3.0 | 0.00 | 0.00 | 0.00 | 48 | 1006.7 |
| 20260504192334 | 74 | 198 | 5.0 | 8.0 | 0.00 | 0.00 | 0.00 | 46 | 1006.7 |
| 20260504191833 | 74 | 218 | 3.0 | 5.0 | 0.00 | 0.00 | 0.00 | 50 | 1006.7 |
| 20260504191330 | 74 | 220 | 3.0 | 5.0 | 0.00 | 0.00 | 0.00 | 47 | 1006.7 |
| 20260504190825 | 74 | 203 | 1.0 | 2.0 | 0.00 | 0.00 | 0.00 | 48 | 1007.0 |
| 20260504190322 | 73 | 185 | 3.0 | 5.0 | 0.00 | 0.00 | 0.00 | 47 | 1006.7 |
| 20260504185818 | 73 | 218 | 4.0 | 6.0 | 0.00 | 0.00 | 0.00 | 47 | 1007.0 |
| 20260504185315 | 73 | 181 | 2.0 | 3.0 | 0.00 | 0.00 | 0.00 | 47 | 1007.0 |
| 20260504184811 | 73 | 144 | 3.0 | 5.0 | 0.00 | 0.00 | 0.00 | 47 | 1007.0 |
| 20260504184307 | 73 | 152 | 1.0 | 2.0 | 0.00 | 0.00 | 0.00 | 48 | 1007.0 |
| 20260504183803 | 73 | 221 | 3.0 | 5.0 | 0.00 | 0.00 | 0.00 | 47 | 1007.0 |
| 20260504183300 | 74 | 222 | 4.0 | 5.0 | 0.00 | 0.00 | 0.00 | 48 | 1007.0 |
| 20260504182758 | 73 | 208 | 1.0 | 2.0 | 0.00 | 0.00 | 0.00 | 49 | 1007.0 |
| 20260504182255 | 73 | 300 | 4.0 | 5.0 | 0.00 | 0.00 | 0.00 | 49 | 1007.3 |
| 20260504181753 | 71 | 206 | 3.0 | 3.0 | 0.00 | 0.00 | 0.00 | 51 | 1007.3 |
| 20260504181250 | 72 | 197 | 3.0 | 5.0 | 0.00 | 0.00 | 0.00 | 50 | 1007.3 |
| 20260504180749 | 72 | 135 | 3.0 | 3.0 | 0.00 | 0.00 | 0.00 | 53 | 1007.3 |
| 20260504180247 | 72 | 220 | 5.0 | 8.0 | 0.00 | 0.00 | 0.00 | 49 | 1007.3 |
| 20260504175744 | 71 | 215 | 2.0 | 5.0 | 0.00 | 0.00 | 0.00 | 49 | 1007.3 |
| 20260504175241 | 71 | 136 | 5.0 | 7.0 | 0.00 | 0.00 | 0.00 | 50 | 1007.3 |
| 20260504174739 | 71 | 207 | 4.0 | 7.0 | 0.00 | 0.00 | 0.00 | 51 | 1007.3 |
| 20260504174237 | 73 | 226 | 5.0 | 6.0 | 0.00 | 0.00 | 0.00 | 49 | 1007.7 |
| 20260504173733 | 71 | 172 | 0.0 | 1.0 | 0.00 | 0.00 | 0.00 | 52 | 1007.7 |
| 20260504173230 | 70 | 318 | 4.0 | 6.0 | 0.00 | 0.00 | 0.00 | 54 | 1007.3 |
| 20260504172727 | 69 | 186 | 2.0 | 3.0 | 0.00 | 0.00 | 0.00 | 53 | 1007.3 |
| 20260504172223 | 70 | 222 | 3.0 | 6.0 | 0.00 | 0.00 | 0.00 | 50 | 1007.7 |
| 20260504171720 | 70 | 92 | 3.0 | 3.0 | 0.00 | 0.00 | 0.00 | 51 | 1007.7 |
| 20260504171217 | 70 | 225 | 1.0 | 2.0 | 0.00 | 0.00 | 0.00 | 54 | 1007.7 |
| 20260504170713 | 69 | 167 | 1.0 | 2.0 | 0.00 | 0.00 | 0.00 | 50 | 1007.7 |
| 20260504170211 | 70 | 329 | 3.0 | 3.0 | 0.00 | 0.00 | 0.00 | 55 | 1007.7 |
| 20260504160129 | 67 | 169 | 1.0 | 1.0 | 0.00 | 0.00 | 0.00 | 54 | 1008.3 |
| 20260504151056 | 64 | 172 | 1.0 | 2.0 | 0.00 | 0.00 | 0.00 | 59 | 1008.7 |
| 20260504150554 | 65 | 164 | 3.0 | 5.0 | 0.00 | 0.00 | 0.00 | 53 | 1008.7 |
| 20260504141020 | 61 | 212 | 6.0 | 9.0 | 0.00 | 0.00 | 0.00 | 55 | 1009.0 |
| 20260504140516 | 62 | 186 | 2.0 | 2.0 | 0.00 | 0.00 | 0.00 | 54 | 1009.0 |
| 20260504130441 | 56 | 200 | 4.0 | 5.0 | 0.00 | 0.00 | 0.00 | 60 | 1009.4 |
| 20260504110328 | 53 | 119 | 1.0 | 2.0 | 0.00 | 0.00 | 0.00 | 61 | 1009.4 |
| 20260504100246 | 53 | 205 | 3.0 | 5.0 | 0.00 | 0.00 | 0.00 | 61 | 1009.4 |
| 20260504081639 | 52 | 152 | 2.0 | 2.0 | 0.00 | 0.00 | 0.00 | 64 | 1009.7 |
| 20260504081135 | 51 | 230 | 3.0 | 3.0 | 0.00 | 0.00 | 0.00 | 64 | 1009.7 |
| 20260504080632 | 51 | 194 | 1.0 | 2.0 | 0.00 | 0.00 | 0.00 | 65 | 1009.7 |
| 20260504080128 | 51 | 174 | 1.0 | 1.0 | 0.00 | 0.00 | 0.00 | 66 | 1009.4 |
| 20260504050444 | 48 | 154 | 0.0 | 0.0 | 0.00 | 0.00 | 0.00 | 96 | 1010.4 |
| 20260504045942 | 48 | 157 | 0.0 | 0.0 | 0.00 | 0.00 | 0.00 | 96 | 1010.4 |
| 20260504045437 | 48 | 156 | 0.0 | 0.0 | 0.00 | 0.00 | 0.00 | 96 | 1010.7 |
| 20260504044933 | 48 | 156 | 0.0 | 0.0 | 0.00 | 0.00 | 0.00 | 96 | 1010.7 |
| 20260504044431 | 48 | 156 | 0.0 | 0.0 | 0.00 | 0.00 | 0.00 | 96 | 1010.4 |
| 20260504043928 | 48 | 156 | 0.0 | 0.0 | 0.00 | 0.00 | 0.00 | 95 | 1010.7 |
| 20260504043425 | 48 | 156 | 0.0 | 0.0 | 0.00 | 0.00 | 0.00 | 95 | 1010.7 |
| 20260504042923 | 48 | 156 | 0.0 | 0.0 | 0.00 | 0.00 | 0.00 | 95 | 1011.1 |
| 20260504042419 | 48 | 156 | 0.0 | 0.0 | 0.00 | 0.00 | 0.00 | 95 | 1010.7 |
| 20260504041916 | 48 | 155 | 0.0 | 0.0 | 0.00 | 0.00 | 0.00 | 94 | 1010.7 |
| 20260504041412 | 48 | 156 | 0.0 | 0.0 | 0.00 | 0.00 | 0.00 | 94 | 1010.7 |
| 20260504040908 | 48 | 154 | 0.0 | 0.0 | 0.00 | 0.00 | 0.00 | 94 | 1010.7 |
| 20260504040406 | 48 | 154 | 0.0 | 0.0 | 0.00 | 0.00 | 0.00 | 94 | 1010.7 |
| 20260504035901 | 48 | 157 | 0.0 | 0.0 | 0.00 | 0.02 | 0.02 | 94 | 1010.7 |
| 20260504035359 | 48 | 156 | 0.0 | 0.0 | 0.00 | 0.02 | 0.02 | 94 | 1010.7 |
| 20260504034855 | 48 | 155 | 0.0 | 0.0 | 0.00 | 0.02 | 0.02 | 93 | 1011.1 |
| 20260504034353 | 48 | 161 | 0.0 | 0.0 | 0.00 | 0.02 | 0.02 | 93 | 1010.7 |
| 20260504033850 | 48 | 163 | 0.0 | 0.0 | 0.00 | 0.02 | 0.02 | 94 | 1011.1 |
| 20260504033348 | 48 | 155 | 0.0 | 0.0 | 0.00 | 0.02 | 0.02 | 94 | 1010.7 |
| 20260504032844 | 48 | 159 | 0.0 | 0.0 | 0.00 | 0.02 | 0.02 | 94 | 1011.1 |
| 20260504032342 | 48 | 153 | 0.0 | 0.0 | 0.00 | 0.02 | 0.02 | 94 | 1011.1 |
| 20260504031838 | 48 | 157 | 0.0 | 0.0 | 0.00 | 0.02 | 0.02 | 94 | 1011.4 |
| 20260504031336 | 48 | 155 | 0.0 | 0.0 | 0.00 | 0.02 | 0.02 | 94 | 1011.4 |
| 20260504030832 | 48 | 156 | 0.0 | 0.0 | 0.00 | 0.02 | 0.02 | 93 | 1011.4 |
| 20260504030329 | 48 | 157 | 0.0 | 0.0 | 0.00 | 0.02 | 0.02 | 93 | 1011.1 |
| 20260504025825 | 49 | 155 | 0.0 | 0.0 | 0.00 | 0.02 | 0.02 | 93 | 1011.1 |
| 20260504025322 | 49 | 155 | 0.0 | 0.0 | 0.00 | 0.02 | 0.02 | 92 | 1011.1 |
| 20260504024819 | 49 | 155 | 0.0 | 0.0 | 0.00 | 0.02 | 0.02 | 92 | 1011.4 |
| 20260504024315 | 49 | 155 | 0.0 | 0.0 | 0.00 | 0.02 | 0.02 | 91 | 1011.4 |
| 20260504023812 | 49 | 155 | 0.0 | 0.0 | 0.00 | 0.02 | 0.02 | 92 | 1011.4 |
| 20260504023309 | 49 | 154 | 0.0 | 0.0 | 0.00 | 0.02 | 0.02 | 91 | 1011.7 |
| 20260504022805 | 49 | 153 | 0.0 | 0.0 | 0.00 | 0.02 | 0.02 | 91 | 1011.7 |
| 20260504022301 | 49 | 153 | 0.0 | 0.0 | 0.00 | 0.02 | 0.02 | 89 | 1012.1 |
| 20260504021758 | 49 | 160 | 0.0 | 0.0 | 0.00 | 0.02 | 0.02 | 89 | 1012.1 |
| 20260504021256 | 49 | 158 | 0.0 | 0.0 | 0.00 | 0.02 | 0.02 | 89 | 1012.1 |
| 20260504020752 | 49 | 160 | 0.0 | 0.0 | 0.00 | 0.02 | 0.02 | 88 | 1012.1 |
| 20260504020249 | 50 | 165 | 0.0 | 0.0 | 0.00 | 0.02 | 0.02 | 87 | 1012.1 |
| 20260504015745 | 50 | 172 | 0.0 | 0.0 | 0.00 | 0.02 | 0.02 | 86 | 1012.1 |
| 20260504015242 | 50 | 165 | 1.0 | 1.0 | 0.00 | 0.02 | 0.02 | 85 | 1012.1 |
| 20260504014737 | 50 | 167 | 0.0 | 1.0 | 0.00 | 0.02 | 0.02 | 85 | 1012.4 |
| 20260504014234 | 51 | 200 | 1.0 | 1.0 | 0.07 | 0.02 | 0.02 | 83 | 1012.1 |
| 20260504013732 | 51 | 272 | 5.0 | 7.0 | 0.00 | 0.01 | 0.01 | 80 | 1012.1 |
| 20260504013229 | 51 | 201 | 3.0 | 5.0 | 0.00 | 0.01 | 0.01 | 80 | 1012.4 |
| 20260504012726 | 52 | 213 | 5.0 | 6.0 | 0.00 | 0.01 | 0.01 | 78 | 1012.4 |
| 20260504012224 | 52 | 212 | 3.0 | 3.0 | 0.00 | 0.01 | 0.01 | 76 | 1012.1 |
| 20260504011720 | 52 | 160 | 1.0 | 2.0 | 0.00 | 0.01 | 0.01 | 75 | 1012.1 |
| 20260504011217 | 52 | 138 | 2.0 | 2.0 | 0.00 | 0.01 | 0.01 | 75 | 1011.7 |
| 20260504010713 | 52 | 157 | 2.0 | 3.0 | 0.00 | 0.01 | 0.01 | 74 | 1011.7 |
| 20260504010209 | 52 | 260 | 3.0 | 5.0 | 0.00 | 0.01 | 0.01 | 74 | 1011.7 |
| 20260504005706 | 52 | 135 | 3.0 | 6.0 | 0.00 | 0.01 | 0.01 | 73 | 1011.4 |
| 20260504005203 | 52 | 133 | 2.0 | 2.0 | 0.05 | 0.01 | 0.01 | 74 | 1011.7 |
| 20260504004700 | 52 | 163 | 2.0 | 2.0 | 0.05 | 0.01 | 0.01 | 72 | 1011.4 |
| 20260504004157 | 53 | 160 | 1.0 | 1.0 | 0.00 | 0.00 | 0.00 | 70 | 1011.4 |
| 20260504003653 | 53 | 182 | 2.0 | 3.0 | 0.00 | 0.00 | 0.00 | 67 | 1011.4 |
| 20260504003151 | 54 | 335 | 3.0 | 5.0 | 0.00 | 0.00 | 0.00 | 64 | 1011.4 |
| 20260504002647 | 54 | 107 | 4.0 | 6.0 | 0.00 | 0.00 | 0.00 | 63 | 1011.4 |
| 20260504002145 | 54 | 280 | 0.0 | 1.0 | 0.00 | 0.00 | 0.00 | 62 | 1011.4 |
| 20260504001643 | 54 | 157 | 0.0 | 0.0 | 0.00 | 0.00 | 0.00 | 63 | 1010.7 |
| 20260504001138 | 54 | 160 | 1.0 | 1.0 | 0.00 | 0.00 | 0.00 | 65 | 1010.7 |
| 20260504000636 | 54 | 161 | 0.0 | 0.0 | 0.00 | 0.00 | 0.00 | 60 | 1011.1 |
| 20260504000133 | 54 | 135 | 0.0 | 1.0 | 0.00 | 0.00 | 0.00 | 60 | 1010.4 |
| 20260503235631 | 54 | 145 | 1.0 | 1.0 | 0.00 | 0.00 | 0.00 | 59 | 1010.7 |
| 20260503235127 | 54 | 159 | 0.0 | 0.0 | 0.00 | 0.00 | 0.00 | 60 | 1010.7 |
| 20260503234626 | 54 | 162 | 0.0 | 0.0 | 0.00 | 0.00 | 0.00 | 59 | 1010.7 |
| 20260503234123 | 54 | 160 | 0.0 | 0.0 | 0.00 | 0.00 | 0.00 | 59 | 1010.7 |
| 20260503233620 | 54 | 148 | 0.0 | 0.0 | 0.00 | 0.00 | 0.00 | 58 | 1010.7 |
| 20260503233116 | 54 | 162 | 0.0 | 1.0 | 0.00 | 0.00 | 0.00 | 59 | 1010.7 |
| 20260503232613 | 54 | 171 | 0.0 | 1.0 | 0.00 | 0.00 | 0.00 | 59 | 1011.1 |
| 20260503232110 | 54 | 175 | 1.0 | 2.0 | 0.00 | 0.00 | 0.00 | 58 | 1011.1 |
| 20260503231608 | 55 | 274 | 6.0 | 9.0 | 0.00 | 0.00 | 0.00 | 58 | 1011.4 |
| 20260503231104 | 55 | 252 | 3.0 | 3.0 | 0.00 | 0.00 | 0.00 | 55 | 1011.7 |
| 20260503230601 | 55 | 91 | 2.0 | 2.0 | 0.00 | 0.00 | 0.00 | 55 | 1011.7 |
| 20260503230058 | 56 | 267 | 5.0 | 6.0 | 0.00 | 0.00 | 0.00 | 55 | 1011.4 |
| 20260503225555 | 56 | 160 | 2.0 | 3.0 | 0.00 | 0.00 | 0.00 | 53 | 1011.4 |
| 20260503225050 | 56 | 204 | 2.0 | 2.0 | 0.00 | 0.00 | 0.00 | 53 | 1011.4 |
| 20260503224548 | 56 | 179 | 2.0 | 3.0 | 0.00 | 0.00 | 0.00 | 51 | 1011.4 |
| 20260503224046 | 56 | 250 | 4.0 | 5.0 | 0.00 | 0.00 | 0.00 | 51 | 1011.4 |